Date String (YYYY-MM-DD hh:mm:ss) UTC,Instrument flags,absolute air pressure of the measurement (hPa),sample flow rate (lpm),inlet stack bypass flow (lpm),air temperature of the measurement (°C),ambient temperature measured by the external sensor (°C),aerosol sample conditioner tube jacket temperature (°C),OPC LED temperature (°C),internal box temperature (°C),relative humidity of the measurement (%),span deviation,mass concentration of particles derived from Lorenz-Mie calculation of OPC scattering (μg/m³),mass concentration of particles derived from Lorenz-Mie calculation of OPC scattering (μg/m³),mass concentration of particles derived from Lorenz-Mie calculation of OPC scattering (μg/m³)
DateTimeUTC,F1_M11,P_M11,Q1_M11,Q2_M11,T1_M11,T2_M11,T3_M11,T4_M11,T5_M11,U1_M11,ZSPAN_M11,X2_M11,X0_M11,X1_M11
2023-10-22 10:00:00,SystemResetWarning,0826.9,5.01,000.00,029.0,027.6,000.0,037.4,030.6,15.5,0000.0,0004.60,0020.69,0001.80
2023-10-22 10:01:00,SystemResetWarning,0826.9,5.00,000.00,029.0,027.6,000.0,037.4,030.6,15.5,0000.0,0004.64,0021.92,0001.81
2023-10-22 10:02:00,SystemResetWarning,0826.9,5.00,000.00,029.0,027.5,000.0,037.4,030.6,15.5,0000.0,0004.65,0021.36,0001.82
2023-10-22 10:03:00,SystemResetWarning,0827.0,5.00,000.00,029.0,027.5,000.0,037.4,030.6,15.4,0000.0,0004.71,0020.89,0001.82
2023-10-22 10:04:00,SystemResetWarning,0827.0,5.00,000.00,029.0,027.5,000.0,037.4,030.6,15.4,0000.0,0004.81,0021.39,0001.85
2023-10-22 10:05:00,SystemResetWarning,0827.0,5.00,000.00,029.0,027.5,000.0,037.4,030.6,15.5,0000.0,0004.83,0022.52,0001.88
2023-10-22 10:06:00,SystemResetWarning,0827.0,4.99,000.00,029.0,027.5,000.0,037.4,030.6,15.6,0000.0,0004.88,0023.42,0001.92
2023-10-22 10:07:00,SystemResetWarning,0826.9,5.00,000.00,029.0,027.5,000.0,037.4,030.6,15.6,0000.0,0004.95,0023.78,0001.95
2023-10-22 10:08:00,SystemResetWarning,0826.9,5.00,000.00,029.0,027.5,000.0,037.4,030.6,15.6,0000.0,0005.01,0023.63,0001.98
2023-10-22 10:09:00,SystemResetWarning,0827.0,5.00,000.00,029.0,027.5,000.0,037.4,030.6,15.6,0000.0,0005.03,0024.23,0002.00
2023-10-22 10:10:00,SystemResetWarning,0827.0,5.00,000.00,029.0,027.6,000.0,037.4,030.6,15.6,0000.0,0005.09,0023.97,0002.00
2023-10-22 10:11:00,SystemResetWarning,0827.0,5.00,000.00,029.0,027.6,000.0,037.4,030.6,15.6,0000.0,0005.13,0023.93,0002.00
2023-10-22 10:12:00,SystemResetWarning,0827.1,5.00,000.00,029.0,027.6,000.0,037.5,030.6,15.7,0000.0,0005.08,0023.42,0001.99
2023-10-22 10:13:00,SystemResetWarning,0827.1,5.00,000.00,029.0,027.6,000.0,037.5,030.6,15.7,0000.0,0005.07,0022.98,0002.01
2023-10-22 10:14:00,SystemResetWarning,0827.1,5.01,000.00,029.0,027.6,000.0,037.5,030.6,15.8,0000.0,0005.01,0021.81,0002.02
2023-10-22 10:15:00,SystemResetWarning,0827.1,5.01,000.00,029.0,027.6,000.0,037.5,030.6,15.8,0000.0,0005.00,0021.83,0002.02
2023-10-22 10:16:00,SystemResetWarning,0827.2,5.00,000.00,029.0,027.5,000.0,037.5,030.6,15.7,0000.0,0004.97,0020.90,0002.01
2023-10-22 10:17:00,SystemResetWarning,0827.1,4.99,000.00,029.0,027.5,000.0,037.5,030.6,15.7,0000.0,0004.96,0019.97,0002.00
2023-10-22 10:18:00,SystemResetWarning,0827.1,5.00,000.00,029.0,027.5,000.0,037.5,030.6,15.6,0000.0,0004.92,0020.39,0001.97
2023-10-22 10:19:00,SystemResetWarning,0827.1,4.99,000.00,029.0,027.5,000.0,037.5,030.6,15.6,0000.0,0004.92,0021.21,0001.96
2023-10-22 10:20:00,SystemResetWarning,0827.1,5.00,000.00,029.1,027.6,000.0,037.5,030.7,15.6,0000.0,0004.83,0020.28,0001.95
2023-10-22 10:21:00,SystemResetWarning,0827.1,5.00,000.00,029.0,027.6,000.0,037.5,030.7,15.6,0000.0,0004.74,0020.58,0001.95
2023-10-22 10:22:00,SystemResetWarning,0827.1,5.01,000.00,029.1,027.6,000.0,037.5,030.7,15.6,0000.0,0004.69,0019.68,0001.95
2023-10-22 10:23:00,SystemResetWarning,0827.1,5.01,000.00,029.1,027.6,000.0,037.5,030.7,15.6,0000.0,0004.72,0019.47,0001.95
2023-10-22 10:24:00,SystemResetWarning,0827.1,5.00,000.00,029.1,027.6,000.0,037.5,030.7,15.6,0000.0,0004.76,0021.66,0001.95
2023-10-22 10:25:00,SystemResetWarning,0827.1,4.99,000.00,029.1,027.5,000.0,037.5,030.7,15.6,0000.0,0004.87,0023.35,0001.94
2023-10-22 10:26:00,SystemResetWarning,0827.0,5.00,000.00,029.1,027.6,000.0,037.5,030.7,15.6,0000.0,0004.89,0024.47,0001.92
2023-10-22 10:27:00,SystemResetWarning,0827.1,4.99,000.00,029.1,027.5,000.0,037.5,030.7,15.5,0000.0,0004.93,0025.04,0001.93
2023-10-22 10:28:00,SystemResetWarning,0827.1,5.00,000.00,029.1,027.6,000.0,037.5,030.7,15.4,0000.0,0004.95,0026.83,0001.91
2023-10-22 10:29:00,SystemResetWarning,0827.1,4.99,000.00,029.1,027.6,000.0,037.5,030.7,15.2,0000.0,0005.00,0026.73,0001.90
2023-10-22 10:30:00,SystemResetWarning,0827.1,5.01,000.00,029.1,027.6,000.0,037.5,030.7,15.2,0000.0,0004.96,0025.73,0001.91
2023-10-22 10:31:00,SystemResetWarning,0827.2,5.00,000.00,029.1,027.6,000.0,037.5,030.7,15.2,0000.0,0005.00,0026.17,0001.91
2023-10-22 10:32:00,SystemResetWarning,0827.1,5.00,000.00,029.1,027.6,000.0,037.5,030.7,15.2,0000.0,0005.04,0026.53,0001.92
2023-10-22 10:33:00,SystemResetWarning,0827.1,5.00,000.00,029.1,027.6,000.0,037.5,030.7,15.2,0000.0,0005.01,0027.61,0001.92
2023-10-22 10:34:00,SystemResetWarning,0827.1,4.99,000.00,029.1,027.6,000.0,037.5,030.7,15.2,0000.0,0005.06,0028.24,0001.94
2023-10-22 10:35:00,SystemResetWarning,0827.1,4.99,000.00,029.1,027.7,000.0,037.5,030.7,15.2,0000.0,0005.04,0026.24,0001.96
2023-10-22 10:36:00,SystemResetWarning,0827.1,4.99,000.00,029.1,027.7,000.0,037.5,030.7,15.2,0000.0,0005.00,0025.82,0001.96
2023-10-22 10:37:00,SystemResetWarning,0827.1,5.01,000.00,029.1,027.7,000.0,037.5,030.7,15.2,0000.0,0004.97,0024.46,0001.95
2023-10-22 10:38:00,SystemResetWarning,0827.1,5.01,000.00,029.1,027.7,000.0,037.5,030.7,15.3,0000.0,0004.87,0023.93,0001.95
2023-10-22 10:39:00,SystemResetWarning,0827.2,5.01,000.00,029.1,027.7,000.0,037.5,030.7,15.3,0000.0,0004.87,0022.68,0001.97
2023-10-22 10:40:00,SystemResetWarning,0827.1,5.00,000.00,029.1,027.7,000.0,037.5,030.7,15.3,0000.0,0004.80,0021.93,0001.99
2023-10-22 10:41:00,SystemResetWarning,0827.2,5.00,000.00,029.1,027.7,000.0,037.5,030.7,15.3,0000.0,0004.82,0023.52,0001.99
2023-10-22 10:42:00,SystemResetWarning,0827.1,4.99,000.00,029.1,027.7,000.0,037.6,030.7,15.3,0000.0,0004.73,0024.05,0001.98
2023-10-22 10:43:00,SystemResetWarning,0827.1,5.00,000.00,029.1,027.7,000.0,037.6,030.7,15.3,0000.0,0004.66,0024.91,0001.98
2023-10-22 10:44:00,SystemResetWarning,0827.1,5.00,000.00,029.1,027.7,000.0,037.6,030.7,15.3,0000.0,0004.67,0023.44,0001.97
2023-10-22 10:45:00,SystemResetWarning,0827.1,5.00,000.00,029.2,027.7,000.0,037.6,030.8,15.4,0000.0,0004.55,0022.65,0001.96
2023-10-22 10:46:00,SystemResetWarning,0827.1,5.01,000.00,029.2,027.7,000.0,037.6,030.8,15.4,0000.0,0004.47,0021.63,0001.93
2023-10-22 10:47:00,SystemResetWarning,0827.1,5.01,000.00,029.2,027.7,000.0,037.6,030.8,15.4,0000.0,0004.53,0021.54,0001.94
2023-10-22 10:48:00,SystemResetWarning,0827.1,5.00,000.00,029.1,027.7,000.0,037.6,030.8,15.5,0000.0,0004.54,0021.83,0001.96
2023-10-22 10:49:00,SystemResetWarning,0827.1,5.00,000.00,029.2,027.7,000.0,037.6,030.8,15.5,0000.0,0004.62,0022.24,0001.97
2023-10-22 10:50:00,SystemResetWarning,0827.1,5.00,000.00,029.2,027.7,000.0,037.6,030.8,15.5,0000.0,0004.61,0021.80,0001.97
2023-10-22 10:51:00,SystemResetWarning,0827.2,5.00,000.00,029.2,027.7,000.0,037.6,030.8,15.5,0000.0,0004.58,0021.73,0001.96
2023-10-22 10:52:00,SystemResetWarning,0827.1,5.00,000.00,029.2,027.7,000.0,037.6,030.8,15.5,0000.0,0004.61,0020.60,0001.95
2023-10-22 10:53:00,SystemResetWarning,0827.1,5.00,000.00,029.2,027.7,000.0,037.6,030.8,15.5,0000.0,0004.67,0019.04,0001.96
2023-10-22 10:54:00,SystemResetWarning,0827.0,5.00,000.00,029.2,027.7,000.0,037.6,030.8,15.8,0000.0,0004.74,0017.52,0001.97
2023-10-22 10:55:00,SystemResetWarning,0827.1,5.00,000.00,029.2,027.7,000.0,037.6,030.8,15.8,0000.0,0004.81,0019.34,0001.98
2023-10-22 10:56:00,SystemResetWarning,0827.1,5.00,000.00,029.2,027.7,000.0,037.6,030.8,15.8,0000.0,0004.87,0021.58,0001.98
2023-10-22 10:57:00,SystemResetWarning,0827.1,5.00,000.00,029.2,027.7,000.0,037.6,030.8,15.9,0000.0,0004.93,0022.38,0001.99
2023-10-22 10:58:00,SystemResetWarning,0827.1,5.00,000.00,029.2,027.7,000.0,037.6,030.8,15.8,0000.0,0004.86,0022.07,0001.99
2023-10-22 10:59:00,SystemResetWarning,0827.1,5.01,000.00,029.2,027.7,000.0,037.6,030.8,15.7,0000.0,0004.82,0022.99,0001.98
